Weather History for KCTB - July, 2013

Change the Weather History Date:

Tuesday, July 16, 2013

  Actual Average Record
Temperature  
Mean Temperature 62 °F 65 °F  
Max Temperature 74 °F 80 °F 99 °F (1919)
Min Temperature 50 °F 50 °F 32 °F (1999)
Degree Days  
Heating Degree Days 3 3  
Month to date heating degree days 26 58  
Since 1 June heating degree days 235 291  
Since 1 July heating degree days 26 58  
Cooling Degree Days 0 2  
Month to date cooling degree days 47 27  
Year to date cooling degree days 61 44  
Since 1 June cooling degree days 59 42  
Growing Degree Days 12 (Base 50)    
Moisture  
Dew Point 44 °F    
Average Humidity 55    
Maximum Humidity 77    
Minimum Humidity 33    
Precipitation  
Precipitation 0.00 in 0.04 in 0.60 in (1928)
Month to date precipitation 1.42 0.76  
Year to date precipitation 9.21 6.95  
Snow  
Snow 0.00 in - - ()
Snow Depth 0.00 in    
Sea Level Pressure  
Sea Level Pressure 30.20 in    
Wind  
Wind Speed 8 mph (ENE)    
Max Wind Speed 17 mph    
Max Gust Speed 32 mph    
Visibility 10 miles    
Events      
T = Trace of Precipitation, MM = Missing Value Source: NWS Daily Summary

Daily Weather History Graph

Daily Weather History Graph

Search for Another Location

Airport or City:

Trip Planner

Search our weather history database for the weather conditions in past years. The results will help you decide how hot, cold, wet, or windy it might be!

Date:

Astronomy

Jul. 16, 2013 Rise Set
Actual Time 5:44 AM MDT 9:26 PM MDT
Civil Twilight 5:04 AM MDT 10:05 PM MDT
Nautical Twilight 4:10 AM MDT 10:59 PM MDT
Astronomical Twilight 2:52 AM MDT 12:16 AM MDT
Moon 3:00 PM MDT (7/16) 12:31 AM MDT (7/16)
Length of Visible Light 17h 01m
Length of Day
15h 41m
First Quarter, 57% of the Moon is Illuminated
Jul 16
First Quarter
Jul 22
Full
Jul 29
Last Quarter
Aug 6
New
Aug 14
First Quarter

Hourly Weather History & Observations

Time (MDT) Temp. Dew Point Humidity Pressure Visibility Wind Dir Wind Speed Gust Speed Precip Events Conditions
12:56 AM 53.1 °F 44.1 °F 71% 30.17 in 10.0 mi NW 11.5 mph - N/A   Overcast
1:56 AM 51.1 °F 44.1 °F 77% 30.18 in 10.0 mi NNW 5.8 mph - N/A   Mostly Cloudy
2:56 AM 52.0 °F 45.0 °F 77% 30.21 in 10.0 mi NW 5.8 mph - N/A   Overcast
3:56 AM 52.0 °F 45.0 °F 77% 30.22 in 10.0 mi NNW 5.8 mph - N/A   Overcast
4:56 AM 53.1 °F 45.0 °F 74% 30.23 in 10.0 mi North 4.6 mph - N/A   Overcast
5:56 AM 51.1 °F 45.0 °F 80% 30.23 in 10.0 mi NNE 4.6 mph - N/A   Overcast
6:56 AM 52.0 °F 45.0 °F 77% 30.25 in 10.0 mi NNE 4.6 mph - N/A   Scattered Clouds
7:56 AM 55.9 °F 45.0 °F 67% 30.25 in 10.0 mi North 4.6 mph - N/A   Clear
8:56 AM 57.0 °F 44.1 °F 62% 30.26 in 10.0 mi Calm Calm - N/A   Clear
9:56 AM 59.0 °F 43.0 °F 55% 30.26 in 10.0 mi East 3.5 mph - N/A   Clear
10:56 AM 62.1 °F 43.0 °F 50% 30.25 in 10.0 mi SE 4.6 mph - N/A   Clear
11:56 AM 64.9 °F 43.0 °F 45% 30.23 in 10.0 mi SE 5.8 mph - N/A   Clear
12:56 PM 66.9 °F 41.0 °F 39% 30.22 in 10.0 mi SE 9.2 mph - N/A   Clear
1:56 PM 69.1 °F 43.0 °F 39% 30.21 in 10.0 mi East 10.4 mph 16.1 mph N/A   Clear
2:56 PM 71.1 °F 43.0 °F 36% 30.19 in 10.0 mi East 13.8 mph 21.9 mph N/A   Clear
3:56 PM 72.0 °F 42.1 °F 34% 30.19 in 10.0 mi ESE 10.4 mph 18.4 mph N/A   Clear
4:56 PM 73.0 °F 43.0 °F 34% 30.17 in 10.0 mi East 13.8 mph 18.4 mph N/A   Clear
5:56 PM 73.9 °F 43.0 °F 33% 30.16 in 10.0 mi ESE 13.8 mph 17.3 mph N/A   Clear
6:56 PM 72.0 °F 43.0 °F 35% 30.15 in 10.0 mi East 9.2 mph - N/A   Clear
7:56 PM 71.1 °F 43.0 °F 36% 30.15 in 10.0 mi East 10.4 mph - N/A   Clear
8:56 PM 66.9 °F 45.0 °F 45% 30.17 in 10.0 mi ENE 8.1 mph - N/A   Clear
9:56 PM 64.0 °F 45.0 °F 50% 30.17 in 10.0 mi ENE 9.2 mph - N/A   Clear
10:56 PM 62.1 °F 45.0 °F 53% 30.17 in 10.0 mi ENE 9.2 mph - N/A   Clear
11:56 PM 61.0 °F 46.0 °F 58% 30.17 in 10.0 mi ENE 9.2 mph - N/A   Clear